Total_Precipitation_Accumulation
0.00 0.00 0.00 0.00 0.00 0.01 0.01 0.01 0.00 0.00 0.00 0.00 0.00 0.00 0.00 0.00 0.00 0.01 0.04 0.00 0.02 0.04 0.02 0.00 0.00 0.00 0.01 0.02 0.03 0.06 0.04 0.03 0.04 0.05 0.06 0.05 0.04 0.01 0.01 0.00 0.01 0.02 0.03 0.04 0.06 0.07 0.03 0.00 0.00 0.01 0.01 0.00 0.00 0.00
0.01 0.00 0.00 0.00 0.01 0.01 0.01 0.00 0.00 0.00 0.00 0.00 0.00 0.00 0.00 0.00 0.00 0.01 0.07 0.02 0.01 0.04 0.01 0.00 0.00 0.00 0.00 0.01 0.04 0.06 0.05 0.04 0.06 0.09 0.08 0.08 0.06 0.04 0.03 0.02 0.00 0.01 0.02 0.03 0.03 0.02 0.00 0.00 0.00 0.00 0.00 0.00 0.00 0.00
0.01 0.01 0.01 0.00 0.00 0.00 0.00 0.00 0.00 0.00 0.00 0.00 0.00 0.00 0.00 0.00 0.00 0.02 0.14 0.11 0.03 0.02 0.01 0.00 0.00 0.00 0.00 0.00 0.00 0.02 0.01 0.03 0.07 0.08 0.13 0.12 0.08 0.04 0.04 0.02 0.01 0.00 0.00 0.01 0.02 0.00 0.00 0.00 0.00 0.00 0.00 0.00 0.00 0.00
0.02 0.02 0.01 0.00 0.00 0.00 0.00 0.00 0.01 0.01 0.01 0.00 0.00 0.00 0.00 0.00 0.00 0.01 0.06 0.09 0.06 0.06 0.05 0.02 0.01 0.00 0.00 0.00 0.00 0.00 0.01 0.04 0.06 0.10 0.15 0.09 0.04 0.02 0.02 0.01 0.01 0.01 0.01 0.02 0.02 0.00 0.01 0.00 0.00 0.00 0.00 0.00 0.01 0.00
0.02 0.02 0.01 0.00 0.00 0.00 0.00 0.00 0.00 0.00 0.00 0.00 0.00 0.00 0.00 0.00 0.01 0.05 0.14 0.14 0.10 0.09 0.13 0.03 0.01 0.00 0.00 0.00 0.01 0.04 0.02 0.05 0.10 0.14 0.09 0.02 0.01 0.04 0.02 0.03 0.00 0.00 0.01 0.04 0.02 0.00 0.03 0.00 0.00 0.00 0.00 0.00 0.00 0.01
0.01 0.01 0.00 0.00 0.00 0.00 0.00 0.00 0.00 0.00 0.00 0.00 0.00 0.00 0.00 0.00 0.01 0.11 0.10 0.08 0.05 0.04 0.06 0.01 0.00 0.00 0.00 0.00 0.00 0.01 0.03 0.04 0.09 0.09 0.04 0.01 0.00 0.08 0.09 0.01 0.00 0.00 0.00 0.00 0.00 0.00 0.01 0.00 0.00 0.00 0.00 0.00 0.00 0.00
0.00 0.00 0.00 0.00 0.00 0.00 0.00 0.00 0.00 0.00 0.00 0.00 0.00 0.00 0.01 0.01 0.08 0.12 0.07 0.14 0.00 0.03 0.05 0.02 0.01 0.00 0.01 0.02 0.02 0.01 0.01 0.02 0.06 0.07 0.02 0.00 0.01 0.09 0.09 0.01 0.00 0.00 0.00 0.00 0.01 0.08 0.13 0.03 0.01 0.00 0.00 0.00 0.01 0.01
0.00 0.00 0.00 0.00 0.00 0.00 0.00 0.00 0.00 0.00 0.00 0.00 0.00 0.00 0.01 0.00 0.02 0.04 0.01 0.00 0.01 0.04 0.03 0.03 0.01 0.01 0.01 0.03 0.04 0.05 0.07 0.06 0.05 0.02 0.01 0.00 0.00 0.03 0.04 0.00 0.00 0.00 0.00 0.03 0.05 0.07 0.12 0.10 0.06 0.03 0.03 0.05 0.08 0.05
0.00 0.00 0.00 0.00 0.00 0.00 0.00 0.00 0.00 0.00 0.00 0.00 0.01 0.00 0.02 0.07 0.13 0.07 0.00 0.00 0.02 0.06 0.08 0.03 0.01 0.03 0.02 0.01 0.02 0.05 0.06 0.04 0.02 0.04 0.01 0.03 0.03 0.04 0.00 0.00 0.01 0.02 0.14 0.19 0.11 0.05 0.03 0.05 0.06 0.05 0.04 0.06 0.09 0.04
0.00 0.00 0.00 0.00 0.00 0.00 0.00 0.00 0.00 0.00 0.01 0.01 0.02 0.05 0.03 0.04 0.01 0.00 0.02 0.04 0.03 0.05 0.04 0.01 0.00 0.01 0.02 0.06 0.08 0.07 0.09 0.05 0.05 0.02 0.03 0.12 0.04 0.01 0.02 0.06 0.11 0.15 0.15 0.14 0.24 0.11 0.04 0.07 0.05 0.04 0.06 0.10 0.14 0.09
0.00 0.00 0.00 0.00 0.00 0.00 0.00 0.00 0.00 0.01 0.01 0.03 0.05 0.08 0.02 0.00 0.01 0.02 0.02 0.03 0.04 0.04 0.01 0.00 0.01 0.04 0.06 0.11 0.17 0.12 0.11 0.10 0.13 0.03 0.07 0.08 0.25 0.21 0.11 0.08 0.06 0.07 0.07 0.06 0.09 0.04 0.06 0.26 0.32 0.20 0.11 0.09 0.12 0.08
0.00 0.00 0.00 0.00 0.00 0.00 0.01 0.00 0.00 0.02 0.06 0.04 0.05 0.03 0.02 0.00 0.02 0.01 0.02 0.02 0.02 0.02 0.03 0.06 0.11 0.15 0.12 0.15 0.25 0.15 0.13 0.09 0.05 0.07 0.13 0.31 0.45 0.06 0.02 0.01 0.01 0.02 0.04 0.04 0.02 0.10 0.15 0.21 0.28 0.23 0.18 0.16 0.11 0.07
0.00 0.00 0.00 0.00 0.00 0.01 0.01 0.01 0.00 0.01 0.00 0.01 0.03 0.07 0.04 0.02 0.01 0.01 0.00 0.01 0.04 0.06 0.04 0.05 0.13 0.22 0.18 0.15 0.16 0.08 0.09 0.03 0.05 0.10 0.23 0.43 0.09 0.00 0.00 0.01 0.00 0.00 0.02 0.01 0.02 0.08 0.10 0.12 0.11 0.15 0.10 0.07 0.05 0.04
0.00 0.00 0.00 0.00 0.00 0.02 0.02 0.01 0.00 0.00 0.01 0.10 0.02 0.00 0.00 0.01 0.00 0.00 0.01 0.07 0.07 0.02 0.00 0.02 0.08 0.19 0.14 0.26 0.07 0.09 0.03 0.06 0.09 0.24 0.38 0.07 0.00 0.00 0.00 0.00 0.00 0.00 0.00 0.00 0.02 0.05 0.06 0.09 0.06 0.05 0.06 0.05 0.05 0.04
0.00 0.01 0.01 0.00 0.02 0.04 0.03 0.01 0.00 0.00 0.06 0.09 0.02 0.00 0.00 0.00 0.00 0.01 0.01 0.00 0.01 0.00 0.01 0.03 0.04 0.11 0.12 0.18 0.10 0.14 0.14 0.19 0.33 0.31 0.13 0.02 0.00 0.00 0.00 0.00 0.00 0.01 0.00 0.01 0.01 0.02 0.05 0.07 0.04 0.02 0.02 0.02 0.03 0.04
0.01 0.02 0.01 0.01 0.02 0.06 0.04 0.00 0.00 0.03 0.06 0.05 0.01 0.00 0.00 0.00 0.01 0.01 0.00 0.00 0.00 0.00 0.01 0.05 0.10 0.08 0.12 0.20 0.24 0.23 0.26 0.33 0.27 0.15 0.05 0.01 0.00 0.00 0.00 0.00 0.00 0.01 0.00 0.00 0.01 0.01 0.06 0.07 0.04 0.03 0.02 0.03 0.03 0.04
0.01 0.05 0.00 0.01 0.02 0.05 0.04 0.04 0.07 0.06 0.01 0.00 0.00 0.00 0.00 0.00 0.01 0.01 0.00 0.00 0.01 0.02 0.03 0.06 0.07 0.08 0.08 0.05 0.04 0.11 0.12 0.10 0.04 0.03 0.02 0.02 0.00 0.00 0.00 0.00 0.00 0.00 0.00 0.00 0.00 0.00 0.02 0.02 0.01 0.01 0.03 0.04 0.05 0.08
0.06 0.06 0.01 0.01 0.02 0.06 0.09 0.04 0.09 0.05 0.01 0.00 0.00 0.00 0.00 0.00 0.00 0.00 0.00 0.00 0.02 0.03 0.04 0.06 0.07 0.02 0.02 0.02 0.05 0.10 0.08 0.08 0.08 0.05 0.03 0.00 0.00 0.00 0.00 0.00 0.00 0.00 0.00 0.00 0.00 0.00 0.01 0.01 0.01 0.02 0.02 0.04 0.06 0.10
0.13 0.10 0.02 0.00 0.01 0.04 0.08 0.05 0.05 0.05 0.00 0.00 0.00 0.00 0.00 0.00 0.00 0.00 0.00 0.00 0.01 0.02 0.05 0.04 0.04 0.02 0.03 0.06 0.08 0.06 0.04 0.02 0.01 0.00 0.00 0.00 0.00 0.00 0.00 0.00 0.00 0.00 0.00 0.00 0.00 0.00 0.00 0.01 0.01 0.02 0.02 0.02 0.03 0.03
0.07 0.07 0.01 0.01 0.02 0.11 0.12 0.03 0.03 0.01 0.00 0.00 0.00 0.00 0.00 0.00 0.00 0.00 0.01 0.01 0.02 0.07 0.11 0.07 0.01 0.02 0.06 0.05 0.05 0.05 0.03 0.02 0.01 0.02 0.02 0.01 0.00 0.00 0.00 0.00 0.00 0.00 0.00 0.00 0.00 0.00 0.00 0.01 0.01 0.02 0.02 0.03 0.02 0.02
0.08 0.08 0.03 0.02 0.04 0.06 0.07 0.04 0.03 0.01 0.00 0.00 0.00 0.00 0.00 0.00 0.00 0.01 0.01 0.04 0.08 0.08 0.02 0.00 0.03 0.06 0.06 0.03 0.02 0.01 0.01 0.02 0.04 0.04 0.02 0.01 0.00 0.00 0.00 0.00 0.00 0.00 0.00 0.00 0.00 0.00 0.01 0.01 0.02 0.04 0.04 0.04 0.04 0.03
0.06 0.01 0.04 0.03 0.06 0.05 0.02 0.01 0.01 0.02 0.02 0.00 0.00 0.00 0.00 0.01 0.01 0.01 0.02 0.03 0.02 0.01 0.02 0.04 0.06 0.06 0.04 0.06 0.09 0.10 0.08 0.07 0.05 0.03 0.01 0.01 0.01 0.01 0.00 0.00 0.00 0.00 0.00 0.00 0.01 0.02 0.01 0.01 0.03 0.03 0.03 0.04 0.05 0.05
0.05 0.02 0.06 0.06 0.05 0.01 0.00 0.00 0.01 0.00 0.00 0.00 0.00 0.01 0.01 0.01 0.01 0.02 0.04 0.01 0.01 0.04 0.07 0.07 0.06 0.06 0.10 0.09 0.07 0.09 0.10 0.08 0.04 0.02 0.01 0.01 0.01 0.01 0.01 0.00 0.00 0.01 0.00 0.00 0.00 0.01 0.02 0.03 0.03 0.02 0.02 0.03 0.05 0.07
0.03 0.06 0.04 0.04 0.06 0.02 0.00 0.00 0.01 0.01 0.02 0.02 0.02 0.02 0.01 0.02 0.05 0.08 0.04 0.03 0.05 0.06 0.04 0.02 0.02 0.03 0.04 0.06 0.09 0.11 0.07 0.04 0.02 0.01 0.01 0.02 0.02 0.01 0.01 0.00 0.00 0.00 0.00 0.01 0.02 0.04 0.05 0.03 0.01 0.02 0.02 0.03 0.04 0.06
0.25 0.07 0.03 0.04 0.02 0.04 0.02 0.01 0.01 0.02 0.02 0.01 0.03 0.03 0.03 0.05 0.05 0.04 0.03 0.04 0.05 0.04 0.02 0.02 0.03 0.04 0.05 0.05 0.03 0.02 0.01 0.02 0.04 0.03 0.01 0.01 0.01 0.00 0.00 0.00 0.00 0.00 0.01 0.04 0.05 0.03 0.01 0.01 0.01 0.02 0.03 0.04 0.04 0.05
0.23 0.02 0.01 0.03 0.04 0.01 0.02 0.02 0.02 0.02 0.03 0.05 0.04 0.04 0.04 0.07 0.07 0.03 0.02 0.05 0.04 0.03 0.10 0.13 0.12 0.08 0.04 0.03 0.03 0.03 0.05 0.01 0.00 0.00 0.00 0.00 0.00 0.00 0.01 0.01 0.00 0.00 0.01 0.02 0.02 0.01 0.01 0.01 0.01 0.02 0.03 0.03 0.04 0.06
0.09 0.04 0.02 0.00 0.01 0.03 0.03 0.02 0.03 0.05 0.06 0.06 0.04 0.05 0.06 0.09 0.04 0.07 0.18 0.14 0.05 0.04 0.05 0.03 0.01 0.01 0.00 0.01 0.01 0.01 0.01 0.00 0.00 0.00 0.00 0.00 0.00 0.00 0.01 0.01 0.01 0.01 0.00 0.00 0.01 0.01 0.03 0.02 0.02 0.02 0.03 0.03 0.03 0.05
0.02 0.00 0.01 0.01 0.01 0.02 0.05 0.05 0.04 0.04 0.04 0.03 0.03 0.03 0.05 0.04 0.05 0.08 0.06 0.01 0.00 0.00 0.00 0.00 0.01 0.00 0.01 0.01 0.01 0.01 0.00 0.01 0.00 0.00 0.00 0.00 0.00 0.00 0.00 0.00 0.00 0.00 0.00 0.01 0.02 0.03 0.03 0.04 0.03 0.04 0.04 0.04 0.03 0.02
0.01 0.00 0.01 0.01 0.01 0.03 0.03 0.02 0.02 0.01 0.02 0.00 0.02 0.02 0.01 0.00 0.00 0.00 0.00 0.00 0.00 0.00 0.01 0.02 0.05 0.02 0.02 0.02 0.02 0.00 0.00 0.01 0.01 0.00 0.00 0.00 0.00 0.00 0.00 0.00 0.00 0.01 0.02 0.02 0.01 0.01 0.01 0.03 0.03 0.03 0.03 0.03 0.02 0.03
0.00 0.00 0.01 0.01 0.01 0.01 0.00 0.00 0.00 0.00 0.00 0.00 0.00 0.00 0.00 0.00 0.00 0.00 0.00 0.00 0.00 0.02 0.03 0.03 0.02 0.01 0.01 0.00 0.00 0.00 0.00 0.00 0.01 0.02 0.02 0.01 0.00 0.01 0.01 0.02 0.02 0.02 0.01 0.02 0.02 0.01 0.01 0.01 0.02 0.02 0.03 0.04 0.04 0.05
0.00 0.00 0.00 0.00 0.00 0.00 0.00 0.00 0.00 0.00 0.00 0.00 0.00 0.00 0.01 0.02 0.05 0.02 0.00 0.00 0.01 0.01 0.01 0.01 0.01 0.01 0.01 0.01 0.01 0.01 0.01 0.00 0.01 0.01 0.00 0.01 0.02 0.03 0.02 0.02 0.01 0.01 0.02 0.03 0.03 0.02 0.02 0.02 0.02 0.03 0.03 0.03 0.02 0.03
0.01 0.00 0.00 0.00 0.00 0.00 0.00 0.00 0.00 0.00 0.00 0.00 0.00 0.00 0.01 0.02 0.07 0.08 0.01 0.01 0.01 0.01 0.01 0.00 0.01 0.02 0.02 0.01 0.01 0.01 0.02 0.02 0.01 0.01 0.02 0.02 0.01 0.00 0.00 0.01 0.02 0.03 0.03 0.03 0.02 0.02 0.02 0.03 0.04 0.03 0.03 0.03 0.03 0.04
0.01 0.01 0.00 0.00 0.00 0.00 0.00 0.00 0.00 0.00 0.00 0.00 0.00 0.00 0.01 0.01 0.03 0.03 0.01 0.01 0.01 0.02 0.01 0.02 0.02 0.01 0.01 0.01 0.02 0.02 0.01 0.00 0.00 0.00 0.00 0.00 0.00 0.01 0.02 0.03 0.02 0.02 0.03 0.04 0.04 0.04 0.03 0.03 0.04 0.03 0.04 0.04 0.04 0.04